CW9638 Weather Reports


time (UTC)temp
F
wind
direction
speed
knots
gust
knots
rain 1hr
in
rain 24hr
in
rain mn
in
humidity
%
barometer
mb
20190325010601 46 36 3.5 7.0 0.00 0.17 0.17 92 1017.8
20190325010203 46 36 4.3 8.7 0.00 0.17 0.17 92 1017.8
20190325005603 46 34 4.3 9.6 0.00 0.17 0.17 92 1017.4
20190325005104 46 21 5.2 9.6 0.00 0.17 0.17 92 1017.4
20190325004642 46 36 5.2 9.6 0.00 0.17 0.17 91 1017.4
20190325004058 46 38 6.1 10.4 0.00 0.17 0.17 91 1017.3
20190325003557 46 38 7.0 10.4 0.00 0.17 0.17 91 1017.3
20190325003112 46 44 7.0 9.6 0.00 0.17 0.17 91 1017.3
20190325002557 46 38 5.2 8.7 0.00 0.17 0.17 91 1017.3
20190325002057 46 36 5.2 10.4 0.00 0.17 0.17 91 1017.3
20190325001700 46 37 5.2 10.4 0.00 0.17 0.17 91 1017.3
20190325001059 46 32 5.2 10.4 0.00 0.17 0.17 91 1017.1
20190325000557 46 30 5.2 8.7 0.00 0.17 0.17 91 1017.1
20190325000151 46 40 6.1 9.6 0.00 0.17 0.17 91 1017.1
20190324235559 47 19 6.1 9.6 0.00 0.17 0.17 91 1016.8
20190324235100 47 38 6.1 9.6 0.00 0.17 0.17 91 1016.8
20190324234641 47 33 4.3 10.4 0.00 0.17 0.17 91 1016.8
20190324234055 47 5 6.1 11.3 0.00 0.17 0.17 91 1016.7
20190324233558 47 20 6.1 11.3 0.01 0.17 0.17 90 1016.7
20190324233125 47 25 6.1 10.4 0.01 0.17 0.17 91 1016.7
20190324232557 47 30 7.0 10.4 0.01 0.17 0.17 91 1016.3
20190324232057 47 13 6.1 10.4 0.01 0.17 0.17 91 1016.3
20190324231705 47 27 6.1 8.7 0.01 0.17 0.17 91 1016.3
20190324231052 47 5 6.1 8.7 0.01 0.17 0.17 91 1016.2
20190324230552 47 5 5.2 8.7 0.01 0.17 0.17 91 1016.2
20190324230231 47 5 4.3 8.7 0.01 0.17 0.17 91 1016.2
20190324225556 47 360 6.1 7.8 0.01 0.17 0.17 91 1016.0
20190324225051 47 49 3.5 7.0 0.01 0.17 0.17 91 1016.0
20190324224655 48 51 5.2 7.0 0.01 0.17 0.17 91 1016.0
20190324224051 48 55 3.5 5.2 0.01 0.17 0.17 91 1015.7
20190324223555 48 55 2.6 6.1 0.00 0.16 0.16 92 1015.7
20190324223309 48 55 3.5 7.0 0.00 0.16 0.16 92 1015.7
20190324222551 47 58 2.6 7.8 0.00 0.16 0.16 92 1015.7
20190324222055 47 59 4.3 7.8 0.00 0.16 0.16 92 1015.7
20190324221628 47 26 3.5 8.7 0.00 0.16 0.16 92 1015.7
20190324221050 47 21 4.3 8.7 0.00 0.16 0.16 92 1015.6
20190324220554 47 44 5.2 9.6 0.00 0.16 0.16 92 1015.6
20190324220141 47 33 6.1 9.6 0.00 0.16 0.16 92 1015.6
20190324215549 47 39 7.0 10.4 0.00 0.16 0.16 93 1015.6
20190324215057 47 16 6.1 10.4 0.00 0.16 0.16 93 1015.6
20190324214717 47 25 7.0 10.4 0.00 0.16 0.16 93 1015.6
20190324214048 47 43 4.3 9.6 0.00 0.16 0.16 93 1015.5
20190324213548 47 33 7.0 9.6 0.00 0.16 0.16 94 1015.5
20190324213113 47 51 6.1 11.3 0.00 0.16 0.16 94 1015.5
20190324212549 47 9 6.1 11.3 0.00 0.16 0.16 94 1015.3
20190324212048 47 25 7.0 11.3 0.00 0.16 0.16 93 1015.3
20190324211703 47 27 7.8 11.3 0.00 0.16 0.16 93 1015.3
20190324211047 47 40 7.8 13.9 0.00 0.16 0.16 93 1015.1
20190324210552 47 35 9.6 13.9 0.00 0.16 0.16 93 1015.1
20190324210136 47 41 8.7 13.0 0.00 0.16 0.16 93 1015.1
20190324205548 47 22 7.8 12.2 0.00 0.16 0.16 93 1015.1
20190324205043 47 22 8.7 12.2 0.00 0.16 0.16 93 1015.1
20190324204616 47 13 5.2 7.8 0.00 0.16 0.16 93 1015.1
20190324204048 47 351 5.2 9.6 0.00 0.16 0.16 93 1015.0
20190324203545 47 355 6.1 9.6 0.00 0.16 0.16 93 1015.0
20190324203156 47 19 6.1 9.6 0.00 0.16 0.16 93 1015.0
20190324202546 47 13 6.1 9.6 0.00 0.16 0.16 92 1014.7
20190324202044 47 5 4.3 8.7 0.00 0.16 0.16 93 1014.7
20190324201634 47 355 6.1 8.7 0.00 0.16 0.16 92 1014.7
20190324201044 47 348 6.1 10.4 0.00 0.16 0.16 92 1014.6
20190324200543 47 11 7.8 11.3 0.00 0.16 0.16 92 1014.6
20190324200108 47 355 6.1 11.3 0.00 0.16 0.16 92 1014.6
20190324195539 47 350 5.2 9.6 0.00 0.16 0.16 92 1014.4
20190324195038 47 360 7.0 9.6 0.00 0.16 0.16 92 1014.4
20190324194608 48 335 4.3 7.8 0.00 0.16 0.16 92 1014.4
20190324194039 48 341 4.3 8.7 0.00 0.16 0.16 92 1014.1
20190324193543 48 351 5.2 8.7 0.00 0.16 0.16 92 1014.1
20190324193215 48 13 5.2 7.8 0.00 0.16 0.16 93 1014.1
20190324192537 48 360 4.3 7.0 0.00 0.16 0.16 93 1014.1
20190324192035 48 355 2.6 5.2 0.00 0.16 0.16 94 1014.1
20190324191558 48 355 1.7 4.3 0.00 0.16 0.16 94 1014.1
20190324191035 48 355 2.6 7.0 0.00 0.16 0.16 94 1014.1
20190324190538 47 355 4.3 7.0 0.00 0.16 0.16 94 1014.1
20190324190145 47 350 4.3 7.0 0.00 0.16 0.16 94 1014.1
20190324185534 47 350 4.3 7.8 0.00 0.16 0.16 94 1014.1
20190324185038 47 11 5.2 8.7 0.00 0.16 0.16 95 1014.1
20190324184619 47 5 5.2 8.7 0.00 0.16 0.16 95 1014.1
20190324184030 47 5 4.3 8.7 0.00 0.16 0.16 95 1014.0
20190324183532 48 5 5.2 9.6 0.00 0.16 0.16 95 1014.0
20190324183112 48 360 6.1 9.6 0.00 0.16 0.16 95 1014.0
20190324182538 48 360 7.0 9.6 0.00 0.16 0.16 95 1013.9
20190324182028 48 360 6.1 11.3 0.00 0.16 0.16 95 1013.9
20190324181535 48 355 7.0 11.3 0.00 0.16 0.16 95 1013.9
20190324181032 48 360 6.1 8.7 0.00 0.16 0.16 95 1013.5
20190324180528 48 5 6.1 8.7 0.00 0.16 0.16 95 1013.5
20190324180054 48 18 5.2 8.7 0.00 0.16 0.16 95 1013.5
20190324175526 48 16 5.2 8.7 0.00 0.16 0.16 95 1013.5
20190324175031 48 16 6.1 8.7 0.00 0.16 0.16 95 1013.5
20190324174604 48 11 6.1 8.7 0.00 0.16 0.16 95 1013.5
20190324174026 49 20 4.3 7.8 0.00 0.16 0.16 95 1013.4
20190324173530 49 19 5.2 8.7 0.00 0.16 0.16 95 1013.4
20190324173107 49 23 6.1 8.7 0.00 0.16 0.16 95 1013.4
20190324172528 49 16 5.2 7.0 0.00 0.16 0.16 95 1013.4
20190324172033 49 34 4.3 6.1 0.00 0.16 0.16 95 1013.4
20190324171557 49 39 3.5 6.1 0.00 0.16 0.16 95 1013.4
20190324171027 48 39 3.5 7.8 0.00 0.16 0.16 95 1013.3
20190324170530 48 39 4.3 7.8 0.00 0.16 0.16 95 1013.3
20190324170103 48 39 5.2 7.0 0.00 0.16 0.16 95 1013.3
20190324165524 48 42 4.3 7.0 0.00 0.16 0.16 95 1013.2
20190324165030 48 38 3.5 7.8 0.00 0.16 0.16 95 1013.2
20190324164610 48 38 5.2 7.8 0.00 0.16 0.16 95 1013.2
20190324164025 48 34 5.2 7.8 0.00 0.16 0.16 95 1013.0
20190324163526 48 46 4.3 7.8 0.00 0.16 0.16 95 1013.0
20190324163113 48 46 4.3 7.8 0.00 0.16 0.16 95 1013.0
20190324162523 48 36 3.5 7.0 0.00 0.16 0.16 95 1012.9
20190324162023 48 36 3.5 7.0 0.00 0.16 0.16 95 1012.9
20190324161546 48 36 5.2 7.0 0.00 0.16 0.16 95 1012.9
20190324161023 48 36 5.2 7.0 0.00 0.16 0.16 95 1012.9
20190324160533 48 38 5.2 7.8 0.00 0.16 0.16 94 1012.9
20190324160106 48 29 5.2 8.7 0.00 0.16 0.16 94 1012.9
20190324155525 48 39 5.2 8.7 0.00 0.16 0.16 95 1012.6
20190324155023 48 39 5.2 7.0 0.00 0.16 0.16 95 1012.6
20190324154524 48 51 4.3 6.1 0.00 0.16 0.16 95 1012.6
20190324154024 48 67 4.3 7.0 0.00 0.16 0.16 95 1012.5
20190324153524 48 96 4.3 6.1 0.00 0.16 0.16 95 1012.5
20190324153037 48 98 3.5 6.1 0.00 0.16 0.16 95 1012.5
20190324152521 48 126 2.6 4.3 0.00 0.16 0.16 95 1012.4
20190324152025 48 126 1.7 3.5 0.00 0.16 0.16 95 1012.4
20190324151533 48 126 0.0 2.6 0.00 0.16 0.16 95 1012.4
20190324151023 48 126 0.9 3.5 0.00 0.16 0.16 96 1012.4
20190324150519 47 126 1.7 3.5 0.00 0.16 0.16 96 1012.4
20190324150046 47 126 0.0 0.0 0.00 0.16 0.16 96 1012.4
20190324145518 47 126 0.0 1.7 0.00 0.16 0.16 95 1012.4
20190324145017 47 126 0.0 1.7 0.00 0.16 0.16 95 1012.4
20190324144523 47 126 0.9 2.6 0.00 0.16 0.16 95 1012.4
20190324144016 47 126 0.9 2.6 0.00 0.16 0.16 95 1012.4
20190324143518 47 126 0.9 2.6 0.00 0.16 0.16 95 1012.4
20190324143034 47 126 1.7 2.6 0.00 0.16 0.16 95 1012.4
20190324142514 47 126 1.7 4.3 0.00 0.16 0.16 95 1012.1
20190324142014 47 126 2.6 4.3 0.00 0.16 0.16 95 1012.1
20190324141553 47 126 1.7 4.3 0.00 0.16 0.16 95 1012.1
20190324141013 47 126 2.6 4.3 0.00 0.16 0.16 95 1012.0
20190324140513 47 126 3.5 4.3 0.00 0.16 0.16 95 1012.0
20190324140028 47 126 1.7 3.5 0.00 0.16 0.16 95 1012.0
20190324135517 47 126 1.7 3.5 0.00 0.16 0.16 95 1011.9
20190324135012 47 126 1.7 3.5 0.00 0.16 0.16 95 1011.9
20190324134607 47 126 1.7 3.5 0.00 0.16 0.16 95 1011.9
20190324134011 47 126 1.7 2.6 0.00 0.16 0.16 95 1011.8
20190324133513 47 126 0.0 0.9 0.00 0.16 0.16 95 1011.8
20190324133021 47 126 0.0 0.0 0.00 0.16 0.16 95 1011.8
20190324132512 47 126 0.0 2.6 0.00 0.16 0.16 95 1011.6
20190324132011 47 126 0.9 2.6 0.00 0.16 0.16 95 1011.6
20190324131514 47 126 1.7 2.6 0.00 0.16 0.16 95 1011.6
20190324131011 47 126 0.9 2.6 0.00 0.16 0.16 94 1011.4
20190324130509 47 126 0.0 1.7 0.00 0.16 0.16 94 1011.4
20190324130013 47 126 0.0 2.6 0.00 0.16 0.16 94 1011.4
20190324125508 47 126 0.9 3.5 0.00 0.16 0.16 94 1011.3
20190324125006 47 126 1.7 3.5 0.00 0.16 0.16 94 1011.3
20190324124510 47 126 1.7 4.3 0.00 0.16 0.16 93 1011.3
20190324124004 48 126 1.7 5.2 0.00 0.16 0.16 94 1011.2
20190324123506 48 126 3.5 7.0 0.00 0.16 0.16 94 1011.2
20190324123023 48 126 5.2 7.0 0.00 0.16 0.16 94 1011.2
20190324122508 48 142 3.5 6.1 0.00 0.16 0.16 94 1011.0
20190324122005 48 144 3.5 6.1 0.00 0.16 0.16 94 1011.0
20190324121505 48 130 3.5 6.1 0.00 0.16 0.16 94 1011.0
20190324121007 48 130 3.5 6.1 0.00 0.16 0.16 94 1011.0
20190324120503 48 130 3.5 5.2 0.00 0.16 0.16 94 1011.0
20190324120012 48 130 3.5 5.2 0.00 0.16 0.16 94 1011.0
20190324115503 48 130 2.6 6.1 0.00 0.16 0.16 94 1011.0
20190324115002 48 133 2.6 6.1 0.00 0.16 0.16 94 1011.0
20190324114521 48 133 3.5 7.8 0.00 0.16 0.16 94 1011.0
20190324114002 48 132 4.3 7.8 0.00 0.16 0.16 94 1010.9
20190324113505 48 127 4.3 7.8 0.00 0.16 0.16 94 1010.9
20190324113019 48 130 5.2 7.8 0.00 0.16 0.16 94 1010.9
20190324112502 48 136 5.2 7.8 0.00 0.16 0.16 94 1010.9
20190324112006 48 130 4.3 7.0 0.00 0.16 0.16 94 1010.9
20190324111502 48 132 3.5 6.1 0.00 0.16 0.16 95 1010.9
20190324111002 48 142 3.5 6.1 0.00 0.16 0.16 95 1010.9
20190324110501 48 142 2.6 7.0 0.00 0.16 0.16 94 1010.9
20190324110002 48 145 4.3 7.0 0.00 0.16 0.16 95 1010.9
20190324105502 48 137 5.2 7.0 0.00 0.16 0.16 95 1010.8
20190324105000 48 153 5.2 8.7 0.00 0.16 0.16 95 1010.8
20190324104707 48 156 5.2 8.7 0.00 0.16 0.16 95 1010.8
20190324104100 48 154 6.1 8.7 0.00 0.16 0.16 95 1010.8
20190324103559 48 150 5.2 7.8 0.00 0.16 0.16 95 1010.8
20190324103125 48 153 5.2 8.7 0.00 0.16 0.16 95 1010.8
20190324102558 48 151 5.2 7.0 0.00 0.16 0.16 95 1010.6
20190324102100 48 142 2.6 6.1 0.00 0.16 0.16 95 1010.6
20190324101647 48 142 4.3 6.1 0.00 0.16 0.16 95 1010.6
20190324101056 48 152 4.3 7.0 0.01 0.16 0.16 95 1010.6
20190324100557 48 153 4.3 7.0 0.01 0.16 0.16 95 1010.6
20190324100155 48 154 5.2 7.8 0.01 0.16 0.16 95 1010.6
20190324095559 48 160 5.2 7.8 0.02 0.16 0.16 95 1010.6
20190324095056 48 152 5.2 7.8 0.03 0.16 0.16 95 1010.6
20190324094721 48 149 4.3 7.8 0.03 0.16 0.16 95 1010.6
20190324094056 48 150 5.2 9.6 0.04 0.16 0.16 95 1010.7
20190324093556 48 148 6.1 9.6 0.04 0.16 0.16 95 1010.7
20190324093138 48 147 5.2 7.8 0.05 0.16 0.16 95 1010.7
20190324092556 48 144 4.3 8.7 0.05 0.16 0.16 95 1010.8
20190324092054 48 142 6.1 9.6 0.06 0.16 0.16 95 1010.8
20190324091659 48 145 5.2 9.6 0.06 0.16 0.16 95 1010.8
20190324091053 48 149 6.1 9.6 0.06 0.15 0.15 95 1010.9
20190324090555 48 148 6.1 9.6 0.06 0.15 0.15 95 1010.9
20190324090140 48 154 6.1 9.6 0.06 0.15 0.15 95 1010.9
20190324085554 48 150 5.2 9.6 0.06 0.14 0.14 95 1011.2
20190324085051 48 150 5.2 9.6 0.06 0.13 0.13 95 1011.2
20190324084724 48 148 6.1 8.7 0.07 0.13 0.13 95 1011.2
20190324084049 48 144 5.2 8.7 0.07 0.12 0.12 95 1011.4
20190324083551 48 142 5.2 8.7 0.09 0.12 0.12 95 1011.4
20190324083116 48 138 4.3 8.7 0.09 0.11 0.11 95 1011.4
20190324082546 48 136 4.3 7.0 0.09 0.11 0.11 95 1011.4
20190324082046 48 132 3.5 6.1 0.08 0.10 0.10 95 1011.4
20190324081559 48 134 4.3 6.1 0.07 0.09 0.09 95 1011.4
20190324081050 48 138 3.5 7.8 0.07 0.09 0.09 95 1011.5
20190324080546 48 146 5.2 7.8 0.07 0.09 0.09 95 1011.5
20190324080145 48 142 3.5 6.1 0.07 0.09 0.09 95 1011.5
20190324075545 48 148 3.5 7.0 0.06 0.08 0.08 95 1011.6
20190324075044 48 148 4.3 7.0 0.05 0.07 0.07 94 1011.6
20190324074640 48 154 4.3 7.0 0.03 0.05 0.05 94 1011.6
20190324074043 48 140 4.3 7.8 0.03 0.05 0.05 94 1011.8
20190324073542 48 132 5.2 7.8 0.01 0.03 0.03 94 1011.8
20190324073132 49 142 4.3 7.8 0.00 0.02 0.02 94 1011.8
20190324072544 49 128 4.3 7.0 0.01 0.02 0.02 94 1012.0
20190324072041 49 132 4.3 6.1 0.01 0.02 0.02 94 1012.0
20190324071702 49 130 4.3 7.0 0.01 0.02 0.02 94 1012.0
20190324071048 49 136 4.3 7.0 0.01 0.02 0.02 93 1012.0
20190324070546 49 129 4.3 7.8 0.02 0.02 0.02 93 1012.0
20190324070115 49 124 4.3 7.0 0.02 0.02 0.02 93 1012.0
20190324065539 49 137 4.3 7.8 0.02 0.02 0.02 93 1012.1
20190324065039 49 127 5.2 7.8 0.02 0.02 0.02 93 1012.1
20190324064616 49 132 4.3 7.0 0.02 0.02 0.02 92 1012.1
20190324064044 49 134 5.2 7.8 0.02 0.02 0.02 92 1012.3
20190324063542 49 126 5.2 7.8 0.02 0.02 0.02 92 1012.3
20190324063126 49 130 5.2 7.0 0.02 0.02 0.02 91 1012.3
20190324062536 49 136 4.3 6.1 0.01 0.01 0.01 90 1012.6
20190324062039 49 142 3.5 6.1 0.01 0.01 0.01 88 1012.6
20190324061554 49 146 3.5 6.1 0.01 0.01 0.01 87 1012.6
20190324061033 49 149 2.6 5.2 0.01 0.01 0.01 86 1012.6
20190324060533 49 150 3.5 5.2 0.00 0.00 0.00 85 1012.6
20190324060048 49 131 3.5 6.1 0.00 0.00 0.00 85 1012.6
20190324055536 49 134 4.3 7.0 0.00 0.00 0.00 85 1012.7
20190324055032 50 132 4.3 7.0 0.00 0.00 0.00 85 1012.7
20190324054539 50 132 4.3 7.8 0.00 0.00 0.00 84 1012.7
20190324054030 50 122 5.2 7.8 0.00 0.00 0.00 83 1012.8
20190324053529 50 138 4.3 9.6 0.00 0.00 0.00 82 1012.8
20190324053048 51 127 6.1 9.6 0.00 0.00 0.00 81 1012.8
20190324052529 51 120 5.2 11.3 0.00 0.00 0.00 81 1012.9
20190324052027 51 143 6.1 11.3 0.00 0.00 0.00 81 1012.9
20190324051641 51 137 5.2 8.7 0.00 0.00 0.00 80 1012.9
20190324051026 51 147 5.2 10.4 0.00 0.00 0.00 80 1012.8
20190324050531 51 126 6.1 10.4 0.00 0.00 0.00 80 1012.8
20190324050102 50 129 7.0 10.4 0.00 0.00 0.00 80 1012.8
20190324045529 50 124 6.1 10.4 0.00 0.00 0.00 81 1012.8
20190324045024 50 122 5.2 10.4 0.00 0.00 0.00 80 1012.8
20190324044612 50 130 7.0 10.4 0.00 0.00 0.00 80 1012.8
20190324044024 50 136 6.1 9.6 0.00 0.00 0.00 80 1013.0
20190324043526 50 138 5.2 8.7 0.00 0.00 0.00 81 1013.0
20190324043052 49 132 4.3 8.7 0.00 0.00 0.00 82 1013.0
20190324042528 49 128 4.3 8.7 0.00 0.00 0.00 82 1013.1
20190324042028 48 121 3.5 7.8 0.00 0.00 0.00 82 1013.1
20190324041536 48 117 4.3 7.8 0.00 0.00 0.00 82 1013.1
20190324040522 48 107 4.3 8.7 0.00 0.00 0.00 82 1013.1
20190324040042 48 107 3.5 7.0 0.00 0.00 0.00 81 1013.1
20190324035524 48 126 3.5 7.0 0.00 0.00 0.00 82 1013.2
20190324035022 48 125 2.6 6.1 0.00 0.00 0.00 81 1013.2
20190324034525 48 117 3.5 4.3 0.00 0.00 0.00 81 1013.2
20190324034021 48 117 2.6 6.1 0.00 0.00 0.00 81 1013.6
20190324033522 48 117 2.6 6.1 0.00 0.00 0.00 80 1013.6
20190324033041 48 117 2.6 4.3 0.00 0.00 0.00 80 1013.6
20190324032522 49 117 2.6 6.1 0.00 0.00 0.00 79 1013.7
20190324032022 49 117 3.5 6.1 0.00 0.00 0.00 79 1013.7
20190324031548 49 115 3.5 7.0 0.00 0.00 0.00 79 1013.7
20190324031022 49 115 4.3 7.8 0.00 0.00 0.00 79 1013.7
20190324030520 49 111 4.3 7.8 0.00 0.00 0.00 79 1013.7
20190324030030 49 111 3.5 6.1 0.00 0.00 0.00 79 1013.7
20190324025519 49 117 3.5 7.0 0.00 0.00 0.00 79 1014.0
20190324025021 49 115 3.5 7.8 0.00 0.00 0.00 79 1014.0
20190324024543 49 113 5.2 10.4 0.00 0.00 0.00 79 1014.0
20190324024020 49 119 6.1 10.4 0.00 0.00 0.00 79 1013.8
20190324023524 49 119 5.2 8.7 0.00 0.00 0.00 80 1013.8
20190324023030 49 117 6.1 12.2 0.00 0.00 0.00 80 1013.8
20190324022519 49 117 6.1 11.3 0.00 0.00 0.00 80 1013.7
20190324022019 49 113 7.0 11.3 0.00 0.00 0.00 80 1013.7
20190324021529 49 115 6.1 11.3 0.00 0.00 0.00 80 1013.7
20190324021021 49 116 7.8 10.4 0.00 0.00 0.00 81 1013.7
20190324020518 48 113 7.8 10.4 0.00 0.00 0.00 81 1013.7
20190324020032 48 113 7.8 10.4 0.00 0.00 0.00 81 1013.7
20190324015518 48 111 7.8 10.4 0.00 0.00 0.00 81 1013.7
20190324015018 48 118 7.0 11.3 0.00 0.00 0.00 81 1013.7
20190324014547 48 114 7.0 11.3 0.00 0.00 0.00 81 1013.7
20190324014023 48 134 7.8 11.3 0.00 0.00 0.00 81 1013.7
20190324013522 48 117 7.0 12.2 0.00 0.00 0.00 81 1013.7
20190324013026 48 123 7.8 12.2 0.00 0.00 0.00 81 1013.7
20190324012517 49 119 7.8 12.2 0.00 0.00 0.00 81 1013.6
20190324012023 49 117 7.0 12.2 0.00 0.00 0.00 81 1013.6
20190324011524 49 127 9.6 12.2 0.00 0.00 0.00 81 1013.6